Meath Environmental Platform

Observations for Trim Market St

Time AQI Temp °C Hum % Pres Pa CO μg/m³ H₂S μg/m³ NO μg/m³ NO₂ μg/m³ O₃ μg/m³ SO₂ μg/m³ PM1 μg/m³ PM2.5 μg/m³ PM10 μg/m³
Monday 17 August 2026
08:51 2 19.6 76 511 0.16 0 1.82 2.26 40.33 0 0 1.32 3.41
08:50 2 19.6 77 2,147,483,647 0.16 0 1.82 2.32 33.58 0 1.43 2.74 5.18
08:49 2 19.5 77 2,147,483,647 0.16 0 1.82 2.36 41.16 0 0.71 2.26 4.6
08:47 2 19.5 77 2,147,483,647 0.16 0 1.84 2.2 38.25 0 1.43 2.72 5.19
08:46 2 19.5 77 2,147,483,647 0.23 0 1.84 1.98 38.19 0 1.43 3.19 5.78
08:45 2 19.4 77 2,147,483,647 0.27 0 1.84 2.51 28.97 0 2.85 3.66 7.53
08:44 2 19.4 77 2,147,483,647 0.26 0 1.85 2.14 42.88 0 0.71 3.18 5.78
08:43 2 19.4 78 2,147,483,647 0.19 0 1.86 2.05 36.02 0 1.43 3.18 5.78
08:38 2 19.3 78 2,147,483,647 0.18 0 1.9 1.79 40.35 0 0.71 1.71 6.38
08:32 2 19.1 79 2,147,483,647 0.22 0 1.93 1.77 37.44 0 0.71 2.14 4.67
08:31 2 19 79 2,147,483,647 0.2 0 1.92 1.6 40.16 0 0 2.14 5.82
08:27 2 18.8 80 2,147,483,647 0.21 0 1.95 2.25 36.64 0 0.71 1.64 4.12
08:23 2 18.6 80 2,147,483,647 0.25 0 1.97 2.24 51.3 0 0 1.63 4.7
08:22 2 18.6 80 2,147,483,647 0.18 0 1.97 2.72 48.07 0 0.71 1.63 4.7
08:21 2 18.5 80 2,147,483,647 0.15 0 1.95 2.05 43.68 0 0 1.63 4.7
08:20 2 18.5 80 2,147,483,647 0.19 0 1.97 3.05 50.06 0 0 1.15 3.58
08:19 2 18.5 80 2,147,483,647 0.17 0 1.97 2.36 40.23 0 0.71 1.62 4.14
08:18 2 18.5 80 2,147,483,647 0.16 0 1.97 1.98 40.49 0 0 0.67 3.02
08:17 2 18.4 81 2,147,483,647 0.18 0 1.97 2.98 50.06 0 0.71 1.61 4.15
08:16 2 18.4 81 2,147,483,647 0.19 0 1.98 2.07 46.76 0 0 1.61 4.15